Weather History for Worland, WY

Change the Weather History Date:

Saturday, November 3, 2012

  Actual Average Record
Temperature  
Mean Temperature 41 °F 38 °F  
Max Temperature 59 °F 52 °F 68 °F (1962)
Min Temperature 22 °F 24 °F -16 °F (1991)
Degree Days  
Heating Degree Days 24 27  
Month to date heating degree days 59 80  
Since 1 July heating degree days 765 942  
Cooling Degree Days 0 0  
Month to date cooling degree days 0 0  
Year to date cooling degree days 901 535  
Moisture  
Dew Point 21 °F    
Average Humidity 52    
Maximum Humidity 81    
Minimum Humidity 23    
Precipitation  
Precipitation 0.00 in 0.01 in 0.18 in (1960)
Month to date precipitation 0.00 0.04  
Year to date precipitation 2.05 7.03  
Sea Level Pressure  
Sea Level Pressure 30.17 in    
Wind  
Wind Speed 4 mph (SE)    
Max Wind Speed 8 mph    
Max Gust Speed -    
Visibility 10 miles    
Events      
T = Trace of Precipitation, MM = Missing Value Source: NWS Daily Summary

Daily Weather History Graph

Daily Weather History Graph

Search for Another Location

Airport:

Trip Planner

Search our weather history database for the weather conditions in past years. The results will help you decide how hot, cold, wet, or windy it might be!

Date:

Astronomy

Nov. 03, 2012 Rise Set
Actual Time 7:51 AM MDT 5:58 PM MDT
Civil Twilight 7:21 AM MDT 6:28 PM MDT
Nautical Twilight 6:47 AM MDT 7:02 PM MDT
Astronomical Twilight 6:13 AM MDT 7:36 PM MDT
Moon 9:39 PM MDT (11/3) 12:01 PM MDT (11/3)
Length of Visible Light 11h 07m
Length of Day
10h 07m
Waning Gibbous, 80% of the Moon is Illuminated
Nov 3
Waning Gibbous
Nov 6
Last Quarter
Nov 13
New
Nov 20
First Quarter
Nov 28
Full

Hourly Weather History & Observations

Time (MDT) Temp. Windchill Dew Point Humidity Pressure Visibility Wind Dir Wind Speed Gust Speed Precip Events Conditions
1:53 AM 33.1 °F 26.1 °F 21.0 °F 61% 30.15 in 10.0 mi South 8.1 mph - N/A   Clear
2:53 AM 28.9 °F 22.8 °F 19.9 °F 69% 30.16 in 10.0 mi South 5.8 mph - N/A   Clear
3:53 AM 27.0 °F - 19.0 °F 72% 30.16 in 10.0 mi Calm Calm - N/A   Clear
4:53 AM 27.0 °F 20.5 °F 19.9 °F 75% 30.15 in 10.0 mi South 5.8 mph - N/A   Clear
5:53 AM 26.1 °F - 19.0 °F 75% 30.19 in 10.0 mi Calm Calm - N/A   Clear
6:53 AM 24.1 °F - 18.0 °F 77% 30.23 in 10.0 mi Calm Calm - N/A   Clear
7:53 AM 25.0 °F 20.7 °F 19.0 °F 78% 30.25 in 10.0 mi Variable 3.5 mph - N/A   Clear
8:53 AM 28.0 °F 21.7 °F 19.9 °F 72% 30.26 in 10.0 mi SSW 5.8 mph - N/A   Clear
9:53 AM 36.0 °F 33.3 °F 23.0 °F 59% 30.23 in 10.0 mi SSW 3.5 mph - N/A   Clear
10:53 AM 39.9 °F - 24.1 °F 53% 30.22 in 10.0 mi Calm Calm - N/A   Clear
11:53 AM 46.9 °F - 25.0 °F 42% 30.19 in 10.0 mi Calm Calm - N/A   Clear
12:53 PM 53.1 °F - 25.0 °F 34% 30.16 in 10.0 mi Variable 3.5 mph - N/A   Clear
1:53 PM 57.0 °F - 23.0 °F 27% 30.13 in 10.0 mi ENE 3.5 mph - N/A   Clear
2:53 PM 57.9 °F - 21.0 °F 24% 30.11 in 10.0 mi ENE 4.6 mph - N/A   Clear
3:53 PM 57.9 °F - 19.9 °F 23% 30.11 in 10.0 mi East 3.5 mph - N/A   Clear
4:53 PM 57.9 °F - 19.9 °F 23% 30.11 in 10.0 mi East 4.6 mph - N/A   Clear
5:53 PM 48.0 °F - 19.9 °F 33% 30.15 in 10.0 mi ENE 4.6 mph - N/A   Clear
6:53 PM 46.0 °F 42.5 °F 19.0 °F 34% 30.16 in 10.0 mi East 6.9 mph - N/A   Clear
7:53 PM 46.0 °F 43.1 °F 19.9 °F 35% 30.17 in 10.0 mi South 5.8 mph - N/A   Clear
8:53 PM 42.1 °F 37.7 °F 21.0 °F 43% 30.18 in 10.0 mi South 6.9 mph - N/A   Clear
9:53 PM 41.0 °F - 21.0 °F 45% 30.16 in 10.0 mi Calm Calm - N/A   Clear
10:53 PM 39.9 °F - 21.9 °F 49% 30.16 in 10.0 mi Calm Calm - N/A   Clear
11:53 PM 35.1 °F 31.0 °F 19.9 °F 54% 30.16 in 10.0 mi SSW 4.6 mph - N/A   Clear